This demonstration page uses our WeatherBlox Daily Observations layout. Learn more.

Left ArrowRight Arrow

Hourly Observations for February 12, 2022

Temp ( °F °C ) Dew Point ( °F °C ) Humidity (%) Winds ( mph kmh ) Pressure ( in mb ) Visibility ( mi km ) Precip ( " mm )
12:15 am 00:15 Clear 15 -9.6 7 -13.9 71 71 NW 7 11 30.63 1037 10 16 0.00 0.00
12:35 am 00:35 Clear 12 -11 6 -14.6 75 75 NW 7 11 30.66 1038 10 16 0.00 0.00
12:55 am 00:55 Clear 13 -10.4 7 -14.1 75 75 NNW 7 11 30.66 1038 10 16 0.00 0.00
1:15 am 01:15 Clear 13 -10.5 6 -14.6 72 72 NW 5 7 30.67 1039 10 16 0.00 0.00
1:35 am 01:35 Clear 11 -11.7 5 -15.2 76 76 NW 3 6 30.68 1039 10 16 0.00 0.00
1:55 am 01:55 Clear 13 -10.5 6 -14.4 73 73 NNW 6 9 30.65 1038 10 16 0.00 0.00
2:15 am 02:15 Clear 12 -11.1 5 -15.1 73 73 NW 5 7 30.66 1038 10 16 0.00 0.00
2:35 am 02:35 Clear 11 -11.7 4 -15.3 75 75 NW 7 11 30.68 1039 10 16 0.00 0.00
2:55 am 02:55 Clear 10 -12.4 4 -15.3 79 79 NW 7 11 30.67 1039 10 16 0.00 0.00
3:15 am 03:15 Clear 9 -12.6 4 -15.7 78 78 NW 3 6 30.67 1039 10 16 0.00 0.00
3:35 am 03:35 Clear 9 -12.6 4 -15.5 79 79 Calm 30.66 1038 10 16 0.00 0.00
3:55 am 03:55 Clear 8 -13.3 3 -15.9 81 81 WNW 5 7 30.67 1039 10 16 0.00 0.00
4:15 am 04:15 Clear 10 -12 6 -14.6 81 81 W 6 9 30.66 1038 10 16 0.00 0.00
4:35 am 04:35 Clear 11 -11.7 6 -14.5 80 80 W 6 9 30.64 1038 10 16 0.00 0.00
4:55 am 04:55 Clear 11 -11.9 6 -14.7 80 80 W 5 7 30.65 1038 10 16 0.00 0.00
5:15 am 05:15 Mostly Cloudy 11 -11.6 6 -14.3 81 81 Calm 30.64 1038 10 16 0.00 0.00
5:35 am 05:35 Cloudy 13 -10.8 7 -13.9 78 78 Calm 30.64 1037 10 16 0.00 0.00
5:55 am 05:55 Cloudy 15 -9.4 8 -13.1 75 75 Calm 30.61 1037 10 16 0.00 0.00
6:15 am 06:15 Cloudy 15 -9.5 9 -13 76 76 W 3 6 30.62 1037 10 16 0.00 0.00
6:35 am 06:35 Cloudy 17 -8.3 11 -11.8 76 76 WSW 5 7 30.60 1036 10 16 0.00 0.00
6:55 am 06:55 Cloudy 18 -7.7 11 -11.5 74 74 Calm 30.58 1036 10 16 0.00 0.00
7:15 am 07:15 Cloudy 18 -7.8 11 -11.6 74 74 Calm 30.58 1036 10 16 0.00 0.00
7:35 am 07:35 Cloudy 18 -7.9 11 -11.5 76 76 Calm 30.58 1035 10 16 0.00 0.00
7:55 am 07:55 Cloudy 18 -8 11 -11.6 76 76 SW 5 7 30.58 1035 10 16 0.00 0.00
8:15 am 08:15 Cloudy 18 -8 11 -11.5 76 76 SW 9 15 30.57 1035 10 16 0.00 0.00
8:35 am 08:35 Partly Cloudy 16 -9 10 -12 79 79 SW 3 6 30.59 1036 10 16 0.00 0.00
8:55 am 08:55 Sunny 18 -7.8 12 -11.1 77 77 SW 7 11 30.57 1035 10 16 0.00 0.00
9:15 am 09:15 Sunny 20 -6.5 14 -10.1 76 76 SW 8 13 30.56 1035 10 16 0.00 0.00
9:35 am 09:35 Sunny 23 -5.2 15 -9.5 72 72 SW 7 11 30.54 1034 10 16 0.00 0.00
9:55 am 09:55 Sunny 25 -3.7 16 -9 67 67 WSW 8 13 30.52 1034 10 16 0.00 0.00
10:15 am 10:15 Sunny 26 -3.2 16 -8.7 66 66 W 10 17 30.52 1033 10 16 0.00 0.00
10:35 am 10:35 Sunny 28 -2.4 17 -8.5 63 63 W 8 13 30.51 1033 10 16 0.00 0.00
10:55 am 10:55 Sunny 31 -0.7 18 -8 58 58 W 9 15 30.48 1032 10 16 0.00 0.00
11:15 am 11:15 Sunny 32 0.2 19 -7.5 57 57 W 7 11 30.46 1032 10 16 0.00 0.00
11:35 am 11:35 Partly Cloudy 35 1.5 19 -7.4 52 52 NNW 7 11 30.44 1031 10 16 0.00 0.00
11:55 am 11:55 Partly Cloudy 36 2 17 -8.6 46 46 NW 8 13 30.43 1030 10 16 0.00 0.00
12:15 pm 12:15 Partly Cloudy 37 2.6 17 -8.4 45 45 NNW 6 9 30.41 1030 10 16 0.00 0.00
12:35 pm 12:35 Sunny 38 3.1 17 -8.4 43 43 WNW 9 15 30.39 1029 10 16 0.00 0.00
12:55 pm 12:55 Partly Cloudy 38 3.5 15 -9.4 39 39 W 12 19 30.36 1028 10 16 0.00 0.00
1:15 pm 13:15 Partly Cloudy 38 3.6 15 -9.2 39 39 W 9 15 30.35 1028 10 16 0.00 0.00
1:35 pm 13:35 Sunny 39 3.9 15 -9.2 38 38 WSW 8 13 30.33 1027 10 16 0.00 0.00
1:55 pm 13:55 Sunny 40 4.5 15 -9.7 35 35 WNW 9 15 30.31 1027 10 16 0.00 0.00
2:15 pm 14:15 Sunny 41 5 12 -11.2 30 30 WNW 14 22 30.30 1026 10 16 0.00 0.00
2:35 pm 14:35 Partly Cloudy 41 5.1 10 -12 28 28 W 13 20 30.29 1026 10 16 0.00 0.00
2:55 pm 14:55 Partly Cloudy 42 5.5 9 -12.7 26 26 WNW 7 11 30.27 1025 10 16 0.00 0.00
3:15 pm 15:15 Mostly Cloudy 42 5.5 9 -12.7 26 26 NW 15 24 30.26 1025 10 16 0.00 0.00
3:35 pm 15:35 Mostly Cloudy 42 5.4 8 -13.2 25 25 WNW 10 17 30.26 1025 10 16 0.00 0.00
3:55 pm 15:55 Mostly Cloudy 42 5.4 7 -13.7 24 24 WNW 13 20 30.26 1025 10 16 0.00 0.00
4:15 pm 16:15 Mostly Cloudy 42 5.6 7 -14 23 23 W 9 15 30.26 1025 10 16 0.00 0.00
4:35 pm 16:35 Sunny 43 6.2 6 -14.5 21 21 WNW 13 20 30.25 1024 10 16 0.00 0.00
4:55 pm 16:55 Sunny 42 5.8 5 -14.9 21 21 WNW 12 19 30.25 1024 10 16 0.00 0.00
5:15 pm 17:15 Sunny 42 5.6 5 -15 21 21 WNW 10 17 30.24 1024 10 16 0.00 0.00
5:35 pm 17:35 Partly Cloudy 42 5.5 5 -15.2 21 21 WNW 7 11 30.23 1024 10 16 0.00 0.00
5:55 pm 17:55 Partly Cloudy 41 5.2 4 -15.3 21 21 WNW 5 7 30.24 1024 10 16 0.00 0.00
6:15 pm 18:15 Partly Cloudy 40 4.3 4 -15.5 22 22 Calm 30.24 1024 10 16 0.00 0.00
6:35 pm 18:35 Partly Cloudy 38 3.6 5 -15.1 24 24 W 5 7 30.24 1024 10 16 0.00 0.00
6:55 pm 18:55 Mostly Cloudy 38 3.2 5 -14.8 26 26 WSW 6 9 30.23 1024 10 16 0.00 0.00
7:15 pm 19:15 Mostly Cloudy 39 4 7 -14 26 26 WSW 5 7 30.22 1023 10 16 0.00 0.00
7:35 pm 19:35 Mostly Cloudy 38 3.5 7 -14 27 27 SW 5 7 30.22 1023 10 16 0.00 0.00
7:55 pm 19:55 Cloudy 37 2.6 6 -14.2 28 28 SW 6 9 30.23 1024 10 16 0.00 0.00
8:15 pm 20:15 Cloudy 36 2.1 7 -14 30 30 SW 8 13 30.23 1024 10 16 0.00 0.00
8:35 pm 20:35 Cloudy 36 2.2 7 -13.9 30 30 SW 9 15 30.21 1023 10 16 0.00 0.00
8:55 pm 20:55 Cloudy 37 2.5 8 -13.5 30 30 SW 7 11 30.21 1023 10 16 0.00 0.00
9:15 pm 21:15 Cloudy 37 2.8 8 -13.1 30 30 SW 10 17 30.21 1023 10 16 0.00 0.00
9:35 pm 21:35 Cloudy 40 4.2 9 -13 28 28 WSW 13 20 30.20 1023 10 16 0.00 0.00
9:55 pm 21:55 Cloudy 40 4.6 9 -13 27 27 WSW 13 20 30.20 1023 10 16 0.00 0.00
10:15 pm 22:15 Cloudy 39 4.1 8 -13.1 28 28 W 14 22 30.22 1023 10 16 0.00 0.00
10:35 pm 22:35 Cloudy 40 4.3 9 -13 27 27 WNW 12 19 30.21 1023 10 16 0.00 0.00
10:55 pm 22:55 Cloudy 41 4.8 10 -12.5 28 28 WNW 13 20 30.23 1024 10 16 0.00 0.00
11:15 pm 23:15 Partly Cloudy 38 3.3 10 -12.2 31 31 NNW 10 17 30.25 1025 10 16 0.00 0.00
11:35 pm 23:35 Clear 39 4 11 -11.5 32 32 NNW 15 24 30.26 1025 10 16 0.00 0.00
11:55 pm 23:55 Clear 38 3.2 13 -10.8 35 35 NNW 14 22 30.27 1025 10 16 0.00 0.00

Powered by AerisWeather